Time,TemperatureF,DewpointF,PressureIn,WindDirection,WindDirectionDegrees,WindSpeedMPH,WindSpeedGustMPH,Humidity,HourlyPrecipIn,Conditions,Clouds,dailyrainin,SoftwareType,DateUTC
2013-01-22 00:03:00,30.6,18.3,30.04,ENE,67,0.0,0.0,60,0.00,,,0.02,WUHU21623XXSP,2013-01-22 08:03:00,
2013-01-22 00:10:00,30.6,18.3,30.04,ENE,67,0.0,0.0,60,0.00,,,0.00,WUHU21623XXSP,2013-01-22 08:10:00,
2013-01-22 00:15:00,30.4,18.1,30.04,NW,315,0.0,0.0,60,0.00,,,0.00,WUHU21623XXSP,2013-01-22 08:15:00,
2013-01-22 00:20:00,30.2,18.0,30.04,NNE,22,0.0,0.0,60,0.00,,,0.00,WUHU21623XXSP,2013-01-22 08:20:00,
2013-01-22 00:25:00,30.2,17.5,30.05,NNE,22,0.0,0.0,59,0.00,,,0.00,WUHU21623XXSP,2013-01-22 08:25:00,
2013-01-22 00:30:00,30.2,17.5,30.04,NE,45,0.0,0.0,59,0.00,,,0.00,WUHU21623XXSP,2013-01-22 08:30:00,
2013-01-22 00:35:00,30.0,17.4,30.04,NE,45,0.0,0.0,59,0.00,,,0.00,WUHU21623XXSP,2013-01-22 08:35:00,
2013-01-22 00:40:00,30.0,17.4,30.03,SSW,202,0.0,0.0,59,0.00,,,0.00,WUHU21623XXSP,2013-01-22 08:40:00,
2013-01-22 00:45:00,30.0,17.4,30.04,SSW,202,0.0,0.0,59,0.00,,,0.00,WUHU21623XXSP,2013-01-22 08:45:00,
2013-01-22 00:50:00,30.0,17.4,30.04,NW,315,0.0,0.0,59,0.00,,,0.00,WUHU21623XXSP,2013-01-22 08:50:00,
2013-01-22 00:55:00,30.0,17.4,30.04,NNW,337,0.0,0.0,59,0.00,,,0.00,WUHU21623XXSP,2013-01-22 08:55:00,
2013-01-22 01:00:00,30.0,17.4,30.04,NNE,22,0.0,0.0,59,0.00,,,0.00,WUHU21623XXSP,2013-01-22 09:00:00,
2013-01-22 01:05:00,30.0,17.4,30.04,NNE,22,0.0,0.0,59,0.00,,,0.00,WUHU21623XXSP,2013-01-22 09:05:00,
2013-01-22 01:10:00,30.0,17.0,30.04,SW,225,0.0,0.0,58,0.00,,,0.00,WUHU21623XXSP,2013-01-22 09:10:00,
2013-01-22 01:15:00,30.0,17.0,30.04,West,270,0.0,0.0,58,0.00,,,0.00,WUHU21623XXSP,2013-01-22 09:15:00,
2013-01-22 01:20:00,29.8,16.4,30.04,NE,45,0.0,0.0,57,0.00,,,0.00,WUHU21623XXSP,2013-01-22 09:20:00,
2013-01-22 01:25:00,29.8,16.4,30.05,NE,45,0.0,0.0,57,0.00,,,0.00,WUHU21623XXSP,2013-01-22 09:25:00,
2013-01-22 01:30:00,29.8,16.4,30.04,NE,45,0.0,0.0,57,0.00,,,0.00,WUHU21623XXSP,2013-01-22 09:30:00,
2013-01-22 01:35:00,29.8,16.0,30.03,NNE,22,0.0,0.0,56,0.00,,,0.00,WUHU21623XXSP,2013-01-22 09:35:00,
2013-01-22 01:40:00,30.0,16.1,30.03,NE,45,0.0,0.0,56,0.00,,,0.00,WUHU21623XXSP,2013-01-22 09:40:00,
2013-01-22 01:45:00,30.0,16.1,30.03,NE,45,0.0,0.0,56,0.00,,,0.00,WUHU21623XXSP,2013-01-22 09:45:00,
2013-01-22 01:50:00,30.0,15.7,30.03,NE,45,0.0,0.0,55,0.00,,,0.00,WUHU21623XXSP,2013-01-22 09:50:00,
2013-01-22 01:55:00,30.0,15.7,30.03,ENE,67,0.0,0.0,55,0.00,,,0.00,WUHU21623XXSP,2013-01-22 09:55:00,
2013-01-22 02:00:00,30.2,15.9,30.03,NE,45,0.0,0.0,55,0.00,,,0.00,WUHU21623XXSP,2013-01-22 10:00:00,
2013-01-22 02:05:00,30.0,15.7,30.03,WNW,292,0.0,0.0,55,0.00,,,0.00,WUHU21623XXSP,2013-01-22 10:05:00,
2013-01-22 02:10:00,30.0,16.1,30.03,SSE,157,0.0,0.0,56,0.00,,,0.00,WUHU21623XXSP,2013-01-22 10:10:00,
2013-01-22 02:15:00,30.0,16.1,30.03,ENE,67,0.0,0.0,56,0.00,,,0.00,WUHU21623XXSP,2013-01-22 10:15:00,
2013-01-22 02:20:00,30.0,16.1,30.03,ENE,67,0.0,0.0,56,0.00,,,0.00,WUHU21623XXSP,2013-01-22 10:20:00,
2013-01-22 02:25:00,29.8,16.0,30.03,ENE,67,0.0,0.0,56,0.00,,,0.00,WUHU21623XXSP,2013-01-22 10:25:00,
2013-01-22 02:30:00,29.8,16.0,30.03,ENE,67,0.0,0.0,56,0.00,,,0.00,WUHU21623XXSP,2013-01-22 10:30:00,
2013-01-22 02:35:00,29.7,15.8,30.03,ENE,67,0.0,0.0,56,0.00,,,0.00,WUHU21623XXSP,2013-01-22 10:35:00,
2013-01-22 02:40:00,29.5,15.7,30.03,ENE,67,0.0,0.0,56,0.00,,,0.00,WUHU21623XXSP,2013-01-22 10:40:00,
2013-01-22 02:45:00,29.5,15.2,30.03,NE,45,0.0,0.0,55,0.00,,,0.00,WUHU21623XXSP,2013-01-22 10:45:00,
2013-01-22 02:50:00,29.5,15.2,30.03,NE,45,0.0,0.0,55,0.00,,,0.00,WUHU21623XXSP,2013-01-22 10:50:00,
2013-01-22 02:55:00,29.5,15.2,30.02,NE,45,0.0,0.0,55,0.00,,,0.00,WUHU21623XXSP,2013-01-22 10:55:00,
2013-01-22 03:00:00,29.3,14.7,30.02,NE,45,0.0,0.0,54,0.00,,,0.00,WUHU21623XXSP,2013-01-22 11:00:00,
2013-01-22 03:05:00,29.3,14.7,30.02,NE,45,0.0,0.0,54,0.00,,,0.00,WUHU21623XXSP,2013-01-22 11:05:00,
2013-01-22 03:10:00,29.3,14.7,30.03,NE,45,0.0,0.0,54,0.00,,,0.00,WUHU21623XXSP,2013-01-22 11:10:00,
2013-01-22 03:15:00,29.1,14.5,30.03,NE,45,0.0,0.0,54,0.00,,,0.00,WUHU21623XXSP,2013-01-22 11:15:00,
2013-01-22 03:20:00,29.3,14.7,30.03,NE,45,0.0,0.0,54,0.00,,,0.00,WUHU21623XXSP,2013-01-22 11:20:00,
2013-01-22 03:25:00,29.1,14.5,30.02,NE,45,0.0,0.0,54,0.00,,,0.00,WUHU21623XXSP,2013-01-22 11:25:00,
2013-01-22 03:30:00,29.1,14.5,30.03,NE,45,0.0,0.0,54,0.00,,,0.00,WUHU21623XXSP,2013-01-22 11:30:00,
2013-01-22 03:35:00,29.1,14.5,30.03,NE,45,0.0,0.0,54,0.00,,,0.00,WUHU21623XXSP,2013-01-22 11:35:00,
2013-01-22 03:40:00,29.1,14.5,30.02,NNE,22,0.0,0.0,54,0.00,,,0.00,WUHU21623XXSP,2013-01-22 11:40:00,
2013-01-22 03:45:00,29.1,14.1,30.02,North,0,0.0,0.0,53,0.00,,,0.00,WUHU21623XXSP,2013-01-22 11:45:00,
2013-01-22 03:50:00,29.1,14.1,30.02,NW,315,0.0,0.0,53,0.00,,,0.00,WUHU21623XXSP,2013-01-22 11:50:00,
2013-01-22 03:55:00,28.9,13.9,30.02,NE,45,0.0,0.0,53,0.00,,,0.00,WUHU21623XXSP,2013-01-22 11:55:00,
2013-01-22 04:00:00,28.9,13.9,30.02,NNE,22,0.0,0.0,53,0.00,,,0.00,WUHU21623XXSP,2013-01-22 12:00:00,
2013-01-22 04:05:00,28.9,13.9,30.01,North,0,0.0,0.0,53,0.00,,,0.00,WUHU21623XXSP,2013-01-22 12:05:00,
2013-01-22 04:10:00,28.9,13.9,30.01,North,0,0.0,0.0,53,0.00,,,0.00,WUHU21623XXSP,2013-01-22 12:10:00,
2013-01-22 04:15:00,28.9,14.3,30.02,NE,45,0.0,0.0,54,0.00,,,0.00,WUHU21623XXSP,2013-01-22 12:15:00,
2013-01-22 04:20:00,28.9,14.3,30.01,NE,45,0.0,0.0,54,0.00,,,0.00,WUHU21623XXSP,2013-01-22 12:20:00,
2013-01-22 04:25:00,28.9,14.3,30.01,ENE,67,0.0,0.0,54,0.00,,,0.00,WUHU21623XXSP,2013-01-22 12:25:00,
2013-01-22 04:30:00,28.9,14.3,30.01,ENE,67,0.0,0.0,54,0.00,,,0.00,WUHU21623XXSP,2013-01-22 12:30:00,
2013-01-22 04:35:00,28.9,14.3,30.01,NNE,22,0.0,0.0,54,0.00,,,0.00,WUHU21623XXSP,2013-01-22 12:35:00,
2013-01-22 04:40:00,28.9,14.3,30.00,ESE,112,0.0,0.0,54,0.00,,,0.00,WUHU21623XXSP,2013-01-22 12:40:00,
2013-01-22 04:45:00,28.9,14.3,30.01,WNW,292,0.0,0.0,54,0.00,,,0.00,WUHU21623XXSP,2013-01-22 12:45:00,
2013-01-22 04:50:00,28.9,14.3,30.00,NE,45,0.0,0.0,54,0.00,,,0.00,WUHU21623XXSP,2013-01-22 12:50:00,
2013-01-22 04:55:00,28.9,14.3,30.01,NE,45,0.0,0.0,54,0.00,,,0.00,WUHU21623XXSP,2013-01-22 12:55:00,
2013-01-22 05:00:00,28.9,14.3,30.01,NE,45,0.0,0.0,54,0.00,,,0.00,WUHU21623XXSP,2013-01-22 13:00:00,
2013-01-22 05:05:00,28.9,14.3,30.01,NE,45,0.0,0.0,54,0.00,,,0.00,WUHU21623XXSP,2013-01-22 13:05:00,
2013-01-22 05:10:00,28.9,14.3,30.01,NE,45,0.0,0.0,54,0.00,,,0.00,WUHU21623XXSP,2013-01-22 13:10:00,
2013-01-22 05:15:00,28.8,14.2,30.01,NE,45,0.0,0.0,54,0.00,,,0.00,WUHU21623XXSP,2013-01-22 13:15:00,
2013-01-22 05:20:00,28.8,14.2,30.00,NE,45,0.0,0.0,54,0.00,,,0.00,WUHU21623XXSP,2013-01-22 13:20:00,
2013-01-22 05:25:00,28.6,14.0,30.00,NE,45,0.0,0.0,54,0.00,,,0.00,WUHU21623XXSP,2013-01-22 13:25:00,
2013-01-22 05:31:00,28.8,14.2,29.99,NNE,22,0.0,0.0,54,0.00,,,0.00,WUHU21623XXSP,2013-01-22 13:31:00,
2013-01-22 05:36:00,28.8,14.2,29.99,NNW,337,0.0,0.0,54,0.00,,,0.00,WUHU21623XXSP,2013-01-22 13:36:00,
2013-01-22 05:41:00,28.6,14.0,30.00,NNW,337,0.0,0.0,54,0.00,,,0.00,WUHU21623XXSP,2013-01-22 13:41:00,
2013-01-22 05:46:00,28.6,14.0,29.99,North,0,0.0,0.0,54,0.00,,,0.00,WUHU21623XXSP,2013-01-22 13:46:00,
2013-01-22 05:51:00,28.6,13.6,29.99,NE,45,0.0,0.0,53,0.00,,,0.00,WUHU21623XXSP,2013-01-22 13:51:00,
2013-01-22 05:56:00,28.6,13.6,29.99,NE,45,0.0,0.0,53,0.00,,,0.00,WUHU21623XXSP,2013-01-22 13:56:00,
2013-01-22 06:01:00,28.6,13.6,29.99,NE,45,0.0,0.0,53,0.00,,,0.00,WUHU21623XXSP,2013-01-22 14:01:00,
2013-01-22 06:06:00,28.6,13.6,29.99,NNE,22,0.0,0.0,53,0.00,,,0.00,WUHU21623XXSP,2013-01-22 14:06:00,
2013-01-22 06:11:00,28.6,13.2,29.99,NNE,22,0.0,0.0,52,0.00,,,0.00,WUHU21623XXSP,2013-01-22 14:11:00,
2013-01-22 06:16:00,28.4,13.0,30.00,NNE,22,0.0,0.0,52,0.00,,,0.00,WUHU21623XXSP,2013-01-22 14:16:00,
2013-01-22 06:21:00,28.2,12.8,29.99,NNE,22,0.0,0.0,52,0.00,,,0.00,WUHU21623XXSP,2013-01-22 14:21:00,
2013-01-22 06:26:00,28.2,12.8,29.99,NE,45,0.0,0.0,52,0.00,,,0.00,WUHU21623XXSP,2013-01-22 14:26:00,
2013-01-22 06:31:00,28.2,12.8,29.99,NE,45,0.0,0.0,52,0.00,,,0.00,WUHU21623XXSP,2013-01-22 14:31:00,
2013-01-22 06:36:00,28.2,12.8,29.99,NE,45,0.0,0.0,52,0.00,,,0.00,WUHU21623XXSP,2013-01-22 14:36:00,
2013-01-22 06:41:00,28.2,12.8,29.99,West,270,0.0,0.0,52,0.00,,,0.00,WUHU21623XXSP,2013-01-22 14:41:00,
2013-01-22 06:46:00,28.2,12.8,29.99,NE,45,0.0,0.0,52,0.00,,,0.00,WUHU21623XXSP,2013-01-22 14:46:00,
2013-01-22 06:51:00,28.2,12.8,29.99,ENE,67,0.0,0.0,52,0.00,,,0.00,WUHU21623XXSP,2013-01-22 14:51:00,
2013-01-22 06:56:00,28.2,12.8,29.99,ENE,67,0.0,0.0,52,0.00,,,0.00,WUHU21623XXSP,2013-01-22 14:56:00,
2013-01-22 07:01:00,28.2,12.8,29.99,SSW,202,0.0,0.0,52,0.00,,,0.00,WUHU21623XXSP,2013-01-22 15:01:00,
2013-01-22 07:06:00,28.2,12.8,29.99,SSE,157,0.0,0.0,52,0.00,,,0.00,WUHU21623XXSP,2013-01-22 15:06:00,
2013-01-22 07:11:00,28.0,12.7,29.99,SSE,157,0.0,0.0,52,0.00,,,0.00,WUHU21623XXSP,2013-01-22 15:11:00,
2013-01-22 07:16:00,28.0,12.7,29.99,NE,45,0.0,0.0,52,0.00,,,0.00,WUHU21623XXSP,2013-01-22 15:16:00,
2013-01-22 07:21:00,28.0,12.7,29.98,NE,45,0.0,0.0,52,0.00,,,0.00,WUHU21623XXSP,2013-01-22 15:21:00,
2013-01-22 07:26:00,28.0,12.7,29.98,NE,45,0.0,0.0,52,0.00,,,0.00,WUHU21623XXSP,2013-01-22 15:26:00,
2013-01-22 07:31:00,28.0,12.7,29.98,NNE,22,0.0,0.0,52,0.00,,,0.00,WUHU21623XXSP,2013-01-22 15:31:00,
2013-01-22 07:36:00,28.0,12.7,29.98,ENE,67,0.0,0.0,52,0.00,,,0.00,WUHU21623XXSP,2013-01-22 15:36:00,
2013-01-22 07:41:00,28.0,12.7,29.98,SW,225,0.0,0.0,52,0.00,,,0.00,WUHU21623XXSP,2013-01-22 15:41:00,
2013-01-22 07:46:00,28.0,12.7,29.98,WNW,292,0.0,0.0,52,0.00,,,0.00,WUHU21623XXSP,2013-01-22 15:46:00,
2013-01-22 07:51:00,28.0,12.7,29.98,NW,315,0.0,0.0,52,0.00,,,0.00,WUHU21623XXSP,2013-01-22 15:51:00,
2013-01-22 07:56:00,28.0,12.7,29.98,WNW,292,0.0,0.0,52,0.00,,,0.00,WUHU21623XXSP,2013-01-22 15:56:00,
2013-01-22 08:01:00,28.0,12.7,29.98,ENE,67,0.0,0.0,52,0.00,,,0.00,WUHU21623XXSP,2013-01-22 16:01:00,
2013-01-22 08:06:00,28.2,12.8,29.98,ENE,67,0.0,0.0,52,0.00,,,0.00,WUHU21623XXSP,2013-01-22 16:06:00,
2013-01-22 08:11:00,28.2,12.4,29.98,ENE,67,0.0,0.0,51,0.00,,,0.00,WUHU21623XXSP,2013-01-22 16:11:00,
2013-01-22 08:16:00,28.6,12.8,29.98,WSW,247,0.0,0.0,51,0.00,,,0.00,WUHU21623XXSP,2013-01-22 16:16:00,
2013-01-22 08:21:00,28.6,12.8,29.99,SSE,157,0.0,0.0,51,0.00,,,0.00,WUHU21623XXSP,2013-01-22 16:21:00,
2013-01-22 08:26:00,28.6,13.2,29.98,SE,135,0.0,0.0,52,0.00,,,0.00,WUHU21623XXSP,2013-01-22 16:26:00,
2013-01-22 08:31:00,28.8,13.4,29.98,ESE,112,0.0,0.0,52,0.00,,,0.00,WUHU21623XXSP,2013-01-22 16:31:00,
2013-01-22 08:36:00,28.6,13.2,29.98,ESE,112,0.0,0.0,52,0.00,,,0.00,WUHU21623XXSP,2013-01-22 16:36:00,
2013-01-22 08:41:00,28.8,13.4,29.98,SE,135,0.0,0.0,52,0.00,,,0.00,WUHU21623XXSP,2013-01-22 16:41:00,
2013-01-22 08:46:00,28.9,13.5,29.98,WSW,247,0.0,0.0,52,0.00,,,0.00,WUHU21623XXSP,2013-01-22 16:46:00,
2013-01-22 08:51:00,29.1,13.7,29.99,WSW,247,0.0,0.0,52,0.00,,,0.00,WUHU21623XXSP,2013-01-22 16:51:00,
2013-01-22 08:56:00,29.1,13.7,29.98,South,180,0.0,0.0,52,0.00,,,0.00,WUHU21623XXSP,2013-01-22 16:56:00,
2013-01-22 09:01:00,29.5,14.0,29.98,SSE,157,0.0,0.0,52,0.00,,,0.00,WUHU21623XXSP,2013-01-22 17:01:00,
2013-01-22 09:06:00,29.7,14.2,29.99,SE,135,0.0,0.0,52,0.00,,,0.00,WUHU21623XXSP,2013-01-22 17:06:00,
2013-01-22 09:11:00,30.0,14.5,29.99,SSE,157,0.0,0.0,52,0.00,,,0.00,WUHU21623XXSP,2013-01-22 17:11:00,
2013-01-22 09:16:00,30.4,14.8,29.98,SSE,157,0.0,0.0,52,0.00,,,0.00,WUHU21623XXSP,2013-01-22 17:16:00,
2013-01-22 09:22:00,30.7,15.1,29.99,ESE,112,0.0,0.0,52,0.00,,,0.00,WUHU21623XXSP,2013-01-22 17:22:00,
2013-01-22 09:27:00,31.3,16.1,29.99,SE,135,0.0,0.0,53,0.00,,,0.00,WUHU21623XXSP,2013-01-22 17:27:00,
2013-01-22 09:32:00,31.3,16.1,29.99,ESE,112,0.0,0.0,53,0.00,,,0.00,WUHU21623XXSP,2013-01-22 17:32:00,
2013-01-22 09:37:00,31.8,16.4,29.99,ESE,112,0.0,0.0,54,0.00,,,0.00,WUHU21623XXSP,2013-01-22 17:37:00,
2013-01-22 09:42:00,32.0,17.2,29.99,ENE,67,0.0,0.0,54,0.00,,,0.00,WUHU21623XXSP,2013-01-22 17:42:00,
2013-01-22 09:47:00,32.2,17.8,29.98,SW,225,0.0,0.0,55,0.00,,,0.00,WUHU21623XXSP,2013-01-22 17:47:00,
2013-01-22 09:52:00,32.5,18.5,29.98,SSE,157,0.0,0.0,56,0.00,,,0.00,WUHU21623XXSP,2013-01-22 17:52:00,
2013-01-22 09:57:00,32.7,19.1,29.98,ENE,67,0.0,0.0,57,0.00,,,0.00,WUHU21623XXSP,2013-01-22 17:57:00,
2013-01-22 10:02:00,33.1,19.3,29.98,ENE,67,0.0,0.0,57,0.00,,,0.00,WUHU21623XXSP,2013-01-22 18:02:00,
2013-01-22 10:07:00,33.4,20.2,29.99,SE,135,2.0,2.0,58,0.00,,,0.00,WUHU21623XXSP,2013-01-22 18:07:00,
2013-01-22 10:12:00,33.6,19.9,29.99,SSE,157,2.2,7.4,58,0.00,,,0.00,WUHU21623XXSP,2013-01-22 18:12:00,
2013-01-22 10:17:00,34.0,20.7,29.99,ENE,67,1.1,7.4,58,0.00,,,0.00,WUHU21623XXSP,2013-01-22 18:17:00,
2013-01-22 10:22:00,34.3,21.5,29.99,East,90,0.0,1.1,59,0.00,,,0.00,WUHU21623XXSP,2013-01-22 18:22:00,
2013-01-22 10:27:00,34.3,21.9,29.99,NE,45,1.3,1.3,60,0.00,,,0.00,WUHU21623XXSP,2013-01-22 18:27:00,
2013-01-22 10:32:00,34.3,21.9,29.99,ENE,67,0.0,1.3,60,0.00,,,0.00,WUHU21623XXSP,2013-01-22 18:32:00,
2013-01-22 10:37:00,34.3,21.9,29.99,ENE,67,0.0,1.3,60,0.00,,,0.00,WUHU21623XXSP,2013-01-22 18:37:00,
2013-01-22 10:42:00,34.5,22.1,29.99,ENE,67,0.0,0.0,60,0.00,,,0.00,WUHU21623XXSP,2013-01-22 18:42:00,
2013-01-22 10:47:00,34.7,22.3,29.99,ENE,67,0.0,0.0,60,0.00,,,0.00,WUHU21623XXSP,2013-01-22 18:47:00,
2013-01-22 10:52:00,35.2,22.8,29.99,SSW,202,0.0,0.0,60,0.00,,,0.00,WUHU21623XXSP,2013-01-22 18:52:00,
2013-01-22 10:57:00,35.4,23.4,29.99,SE,135,0.0,0.0,61,0.00,,,0.00,WUHU21623XXSP,2013-01-22 18:57:00,
2013-01-22 11:02:00,35.8,23.7,29.99,SE,135,0.0,0.0,61,0.00,,,0.00,WUHU21623XXSP,2013-01-22 19:02:00,
2013-01-22 11:07:00,36.0,23.9,29.98,ENE,67,0.0,1.1,61,0.00,,,0.00,WUHU21623XXSP,2013-01-22 19:07:00,
2013-01-22 11:12:00,36.0,23.9,29.99,South,180,0.0,1.1,61,0.00,,,0.00,WUHU21623XXSP,2013-01-22 19:12:00,
2013-01-22 11:17:00,36.0,24.2,29.99,East,90,0.0,0.0,62,0.00,,,0.00,WUHU21623XXSP,2013-01-22 19:17:00,
2013-01-22 11:22:00,36.1,24.4,29.98,ENE,67,0.0,0.0,62,0.00,,,0.00,WUHU21623XXSP,2013-01-22 19:22:00,
2013-01-22 11:27:00,36.3,24.5,29.98,ENE,67,0.0,0.0,62,0.00,,,0.00,WUHU21623XXSP,2013-01-22 19:27:00,
2013-01-22 11:32:00,36.3,24.5,29.98,WSW,247,0.0,0.0,62,0.00,,,0.00,WUHU21623XXSP,2013-01-22 19:32:00,
2013-01-22 11:37:00,36.5,24.7,29.98,SE,135,0.0,0.0,62,0.00,,,0.00,WUHU21623XXSP,2013-01-22 19:37:00,
2013-01-22 11:42:00,36.7,24.9,29.97,SSE,157,0.0,0.0,62,0.00,,,0.00,WUHU21623XXSP,2013-01-22 19:42:00,
2013-01-22 11:47:00,37.2,25.4,29.97,South,180,0.0,0.0,62,0.00,,,0.00,WUHU21623XXSP,2013-01-22 19:47:00,
2013-01-22 11:52:00,37.4,25.6,29.96,SSE,157,0.0,0.0,62,0.00,,,0.00,WUHU21623XXSP,2013-01-22 19:52:00,
2013-01-22 11:57:00,37.6,25.7,29.96,SSW,202,0.0,0.0,62,0.00,,,0.00,WUHU21623XXSP,2013-01-22 19:57:00,
2013-01-22 12:02:00,37.8,25.9,29.96,SSW,202,0.0,0.0,62,0.00,,,0.00,WUHU21623XXSP,2013-01-22 20:02:00,
2013-01-22 12:07:00,37.9,26.0,29.96,SSE,157,0.0,0.0,62,0.00,,,0.00,WUHU21623XXSP,2013-01-22 20:07:00,
2013-01-22 12:12:00,37.9,26.4,29.96,SE,135,0.0,0.0,63,0.00,,,0.00,WUHU21623XXSP,2013-01-22 20:12:00,
2013-01-22 12:17:00,38.1,26.6,29.95,SSE,157,0.0,0.0,63,0.00,,,0.00,WUHU21623XXSP,2013-01-22 20:17:00,
2013-01-22 12:22:00,37.9,26.4,29.95,East,90,0.0,0.0,63,0.00,,,0.00,WUHU21623XXSP,2013-01-22 20:22:00,
2013-01-22 12:27:00,37.9,26.4,29.95,East,90,0.0,0.0,63,0.00,,,0.00,WUHU21623XXSP,2013-01-22 20:27:00,
2013-01-22 12:32:00,38.3,26.7,29.95,East,90,0.0,0.0,63,0.00,,,0.00,WUHU21623XXSP,2013-01-22 20:32:00,
2013-01-22 12:37:00,38.5,26.9,29.95,East,90,0.0,0.0,63,0.00,,,0.00,WUHU21623XXSP,2013-01-22 20:37:00,
2013-01-22 12:42:00,38.8,27.2,29.95,WSW,247,0.0,0.0,63,0.00,,,0.00,WUHU21623XXSP,2013-01-22 20:42:00,
2013-01-22 12:47:00,39.0,27.4,29.95,South,180,2.0,2.0,63,0.00,,,0.00,WUHU21623XXSP,2013-01-22 20:47:00,
2013-01-22 12:52:00,39.0,27.4,29.95,SW,225,0.0,2.0,63,0.00,,,0.00,WUHU21623XXSP,2013-01-22 20:52:00,
2013-01-22 12:57:00,38.8,27.2,29.95,SSE,157,0.0,0.0,63,0.00,,,0.00,WUHU21623XXSP,2013-01-22 20:57:00,
2013-01-22 13:02:00,38.5,26.9,29.94,ESE,112,0.0,0.0,63,0.00,,,0.00,WUHU21623XXSP,2013-01-22 21:02:00,
2013-01-22 13:07:00,38.5,26.9,29.94,ESE,112,0.0,0.0,63,0.00,,,0.00,WUHU21623XXSP,2013-01-22 21:07:00,
2013-01-22 13:12:00,39.0,27.4,29.92,ENE,67,0.0,0.0,63,0.00,,,0.00,WUHU21623XXSP,2013-01-22 21:12:00,
2013-01-22 13:17:00,39.7,28.1,29.93,SW,225,0.0,0.0,63,0.00,,,0.00,WUHU21623XXSP,2013-01-22 21:17:00,
2013-01-22 13:22:00,40.3,28.6,29.92,ENE,67,0.0,2.0,63,0.00,,,0.00,WUHU21623XXSP,2013-01-22 21:22:00,
2013-01-22 13:27:00,40.6,29.0,29.92,WSW,247,0.0,2.0,63,0.00,,,0.00,WUHU21623XXSP,2013-01-22 21:27:00,
2013-01-22 13:31:00,41.0,29.4,29.92,SSE,157,0.0,0.0,63,0.00,,,0.00,WUHU21623XXSP,2013-01-22 21:31:00,
2013-01-22 13:36:00,41.4,29.7,29.92,ENE,67,0.0,0.0,63,0.00,,,0.00,WUHU21623XXSP,2013-01-22 21:36:00,
2013-01-22 13:41:00,41.5,29.8,29.91,East,90,0.0,0.0,63,0.00,,,0.00,WUHU21623XXSP,2013-01-22 21:41:00,
2013-01-22 13:46:00,41.4,29.3,29.92,SE,135,3.6,3.6,62,0.00,,,0.00,WUHU21623XXSP,2013-01-22 21:46:00,
2013-01-22 13:51:00,41.0,29.4,29.91,SE,135,0.0,3.6,63,0.00,,,0.00,WUHU21623XXSP,2013-01-22 21:51:00,
2013-01-22 13:56:00,40.5,28.8,29.92,ENE,67,1.6,1.6,63,0.00,,,0.00,WUHU21623XXSP,2013-01-22 21:56:00,
2013-01-22 14:01:00,40.3,28.6,29.90,SSW,202,0.0,1.6,63,0.00,,,0.00,WUHU21623XXSP,2013-01-22 22:01:00,
2013-01-22 14:06:00,40.3,28.6,29.90,SE,135,0.0,0.0,63,0.00,,,0.00,WUHU21623XXSP,2013-01-22 22:06:00,
2013-01-22 14:11:00,40.3,28.6,29.89,ESE,112,0.0,0.0,63,0.00,,,0.00,WUHU21623XXSP,2013-01-22 22:11:00,
2013-01-22 14:16:00,40.5,28.8,29.90,SSW,202,0.0,0.7,63,0.00,,,0.00,WUHU21623XXSP,2013-01-22 22:16:00,
2013-01-22 14:21:00,40.6,29.0,29.90,SE,135,0.0,0.7,63,0.00,,,0.00,WUHU21623XXSP,2013-01-22 22:21:00,
2013-01-22 14:26:00,40.3,28.6,29.90,WSW,247,0.0,0.0,63,0.00,,,0.00,WUHU21623XXSP,2013-01-22 22:26:00,
2013-01-22 14:31:00,40.5,28.8,29.90,SE,135,0.0,0.0,63,0.00,,,0.00,WUHU21623XXSP,2013-01-22 22:31:00,
2013-01-22 14:36:00,40.3,28.6,29.90,SE,135,0.0,0.0,63,0.00,,,0.00,WUHU21623XXSP,2013-01-22 22:36:00,
2013-01-22 14:41:00,40.5,28.8,29.90,SSE,157,0.0,2.0,63,0.00,,,0.00,WUHU21623XXSP,2013-01-22 22:41:00,
2013-01-22 14:46:00,40.6,29.0,29.89,SSE,157,0.0,2.0,63,0.00,,,0.00,WUHU21623XXSP,2013-01-22 22:46:00,
2013-01-22 14:51:00,40.8,28.8,29.89,SSE,157,0.0,0.0,62,0.00,,,0.00,WUHU21623XXSP,2013-01-22 22:51:00,
2013-01-22 14:56:00,40.8,28.8,29.90,ENE,67,0.0,0.0,62,0.00,,,0.00,WUHU21623XXSP,2013-01-22 22:56:00,
2013-01-22 15:01:00,40.6,28.6,29.89,WSW,247,0.0,0.0,62,0.00,,,0.00,WUHU21623XXSP,2013-01-22 23:01:00,
2013-01-22 15:06:00,40.5,28.8,29.89,WSW,247,0.0,0.0,63,0.00,,,0.00,WUHU21623XXSP,2013-01-22 23:06:00,
2013-01-22 15:11:00,40.1,28.5,29.89,ENE,67,0.0,0.0,63,0.00,,,0.00,WUHU21623XXSP,2013-01-22 23:11:00,
2013-01-22 15:16:00,39.9,28.3,29.88,ENE,67,0.0,0.0,63,0.00,,,0.00,WUHU21623XXSP,2013-01-22 23:16:00,
2013-01-22 15:22:00,39.9,28.3,29.88,ENE,67,0.0,0.0,63,0.00,,,0.00,WUHU21623XXSP,2013-01-22 23:22:00,
2013-01-22 15:27:00,39.7,28.1,29.89,SE,135,0.0,0.0,63,0.00,,,0.00,WUHU21623XXSP,2013-01-22 23:27:00,
2013-01-22 15:32:00,39.4,27.7,29.90,SE,135,0.0,0.0,63,0.00,,,0.00,WUHU21623XXSP,2013-01-22 23:32:00,
2013-01-22 15:37:00,39.0,27.4,29.89,South,180,0.0,0.0,63,0.00,,,0.00,WUHU21623XXSP,2013-01-22 23:37:00,
2013-01-22 15:42:00,38.8,27.2,29.89,South,180,0.0,0.0,63,0.00,,,0.00,WUHU21623XXSP,2013-01-22 23:42:00,
2013-01-22 15:47:00,38.5,26.9,29.88,South,180,0.0,0.0,63,0.00,,,0.00,WUHU21623XXSP,2013-01-22 23:47:00,
2013-01-22 15:52:00,38.3,26.7,29.88,South,180,0.0,0.0,63,0.00,,,0.00,WUHU21623XXSP,2013-01-22 23:52:00,
2013-01-22 15:57:00,38.1,26.6,29.88,South,180,0.0,0.0,63,0.00,,,0.00,WUHU21623XXSP,2013-01-22 23:57:00,
2013-01-22 16:02:00,37.9,26.4,29.88,South,180,0.0,0.0,63,0.00,,,0.00,WUHU21623XXSP,2013-01-23 00:02:00,
2013-01-22 16:07:00,37.9,26.4,29.88,South,180,0.0,0.0,63,0.00,,,0.00,WUHU21623XXSP,2013-01-23 00:07:00,
2013-01-22 16:12:00,37.9,26.4,29.88,SSE,157,0.0,0.0,63,0.00,,,0.00,WUHU21623XXSP,2013-01-23 00:12:00,
2013-01-22 16:17:00,32.0,26.4,29.87,ENE,67,0.0,0.0,63,0.00,,,0.00,WUHU21623XXSP,2013-01-23 00:17:00,
2013-01-22 16:22:00,37.9,26.4,29.87,ENE,67,0.0,0.0,63,0.00,,,0.00,WUHU21623XXSP,2013-01-23 00:22:00,
2013-01-22 16:27:00,37.8,26.3,29.87,ENE,67,0.0,0.0,63,0.00,,,0.00,WUHU21623XXSP,2013-01-23 00:27:00,
2013-01-22 16:32:00,37.8,26.6,29.87,ENE,67,0.0,0.0,64,0.00,,,0.00,WUHU21623XXSP,2013-01-23 00:32:00,
2013-01-22 16:37:00,37.8,26.6,29.87,ENE,67,0.0,0.0,64,0.00,,,0.00,WUHU21623XXSP,2013-01-23 00:37:00,
2013-01-22 16:42:00,37.6,26.5,29.86,ENE,67,0.0,0.0,64,0.00,,,0.00,WUHU21623XXSP,2013-01-23 00:42:00,
2013-01-22 16:47:00,37.2,26.1,29.87,NNE,22,0.0,0.0,64,0.00,,,0.00,WUHU21623XXSP,2013-01-23 00:47:00,
2013-01-22 16:52:00,37.2,26.1,29.86,NE,45,0.0,0.0,64,0.00,,,0.00,WUHU21623XXSP,2013-01-23 00:52:00,
2013-01-22 16:57:00,37.2,26.1,29.86,NE,45,0.0,0.0,64,0.00,,,0.00,WUHU21623XXSP,2013-01-23 00:57:00,
2013-01-22 17:03:00,37.0,26.0,29.85,NE,45,0.0,0.0,64,0.00,,,0.00,WUHU21623XXSP,2013-01-23 01:03:00,
2013-01-22 17:08:00,36.7,25.6,29.85,NE,45,0.0,0.0,64,0.00,,,0.00,WUHU21623XXSP,2013-01-23 01:08:00,
2013-01-22 17:13:00,36.7,25.6,29.85,NW,315,0.0,0.0,64,0.00,,,0.00,WUHU21623XXSP,2013-01-23 01:13:00,
2013-01-22 17:17:00,36.7,25.6,29.85,NNW,337,0.0,0.0,64,0.00,,,0.00,WUHU21623XXSP,2013-01-23 01:17:00,
2013-01-22 17:23:00,36.7,25.6,29.85,ENE,67,0.0,0.0,64,0.00,,,0.00,WUHU21623XXSP,2013-01-23 01:23:00,
2013-01-22 17:28:00,37.0,26.0,29.84,WSW,247,0.0,0.0,64,0.00,,,0.00,WUHU21623XXSP,2013-01-23 01:28:00,
2013-01-22 17:33:00,37.0,26.0,29.84,NE,45,0.0,0.0,64,0.00,,,0.00,WUHU21623XXSP,2013-01-23 01:33:00,
2013-01-22 17:38:00,37.0,26.0,29.85,NE,45,0.0,0.0,64,0.00,,,0.00,WUHU21623XXSP,2013-01-23 01:38:00,
2013-01-22 17:43:00,37.0,26.0,29.85,NE,45,0.0,0.0,64,0.00,,,0.00,WUHU21623XXSP,2013-01-23 01:43:00,
2013-01-22 17:48:00,37.2,26.1,29.84,WSW,247,0.0,0.0,64,0.00,,,0.00,WUHU21623XXSP,2013-01-23 01:48:00,
2013-01-22 17:53:00,37.2,26.1,29.84,SE,135,0.0,0.0,64,0.00,,,0.00,WUHU21623XXSP,2013-01-23 01:53:00,
2013-01-22 17:58:00,37.2,26.1,29.84,SE,135,0.0,0.0,64,0.00,,,0.00,WUHU21623XXSP,2013-01-23 01:58:00,
2013-01-22 18:03:00,37.2,26.1,29.85,ESE,112,0.0,0.0,64,0.00,,,0.00,WUHU21623XXSP,2013-01-23 02:03:00,
2013-01-22 18:08:00,37.4,26.3,29.85,ESE,112,0.0,0.0,64,0.00,,,0.00,WUHU21623XXSP,2013-01-23 02:08:00,
2013-01-22 18:13:00,37.4,26.3,29.85,ESE,112,0.0,0.0,64,0.00,,,0.00,WUHU21623XXSP,2013-01-23 02:13:00,
2013-01-22 18:18:00,37.2,26.1,29.84,ESE,112,0.0,0.0,64,0.00,,,0.00,WUHU21623XXSP,2013-01-23 02:18:00,
2013-01-22 18:23:00,37.2,26.1,29.84,ESE,112,0.0,0.0,64,0.00,,,0.00,WUHU21623XXSP,2013-01-23 02:23:00,
2013-01-22 18:28:00,37.2,26.1,29.84,ESE,112,0.0,0.0,64,0.00,,,0.00,WUHU21623XXSP,2013-01-23 02:28:00,
2013-01-22 18:33:00,37.2,26.1,29.83,ENE,67,0.0,0.0,64,0.00,,,0.00,WUHU21623XXSP,2013-01-23 02:33:00,
2013-01-22 18:38:00,37.2,26.1,29.83,ENE,67,0.0,0.0,64,0.00,,,0.00,WUHU21623XXSP,2013-01-23 02:38:00,
2013-01-22 18:43:00,37.2,26.1,29.84,ENE,67,0.0,0.0,64,0.00,,,0.00,WUHU21623XXSP,2013-01-23 02:43:00,
2013-01-22 18:48:00,37.2,26.1,29.84,ENE,67,0.0,0.0,64,0.00,,,0.00,WUHU21623XXSP,2013-01-23 02:48:00,
2013-01-22 18:53:00,37.2,26.1,29.84,ENE,67,0.0,0.0,64,0.00,,,0.00,WUHU21623XXSP,2013-01-23 02:53:00,
2013-01-22 18:58:00,37.2,26.1,29.84,ENE,67,0.0,0.0,64,0.00,,,0.00,WUHU21623XXSP,2013-01-23 02:58:00,
2013-01-22 19:03:00,37.2,26.1,29.83,ENE,67,0.0,0.0,64,0.00,,,0.00,WUHU21623XXSP,2013-01-23 03:03:00,
2013-01-22 19:08:00,37.2,26.1,29.82,ENE,67,0.0,0.0,64,0.00,,,0.00,WUHU21623XXSP,2013-01-23 03:08:00,
2013-01-22 19:13:00,37.2,26.1,29.83,ENE,67,0.0,0.0,64,0.00,,,0.00,WUHU21623XXSP,2013-01-23 03:13:00,
2013-01-22 19:18:00,37.2,26.1,29.83,ENE,67,0.0,0.0,64,0.00,,,0.00,WUHU21623XXSP,2013-01-23 03:18:00,
2013-01-22 19:23:00,37.0,26.0,29.82,ENE,67,0.0,0.0,64,0.00,,,0.00,WUHU21623XXSP,2013-01-23 03:23:00,
2013-01-22 19:28:00,37.2,26.1,29.83,ESE,112,0.0,0.0,64,0.00,,,0.00,WUHU21623XXSP,2013-01-23 03:28:00,
2013-01-22 19:33:00,37.0,26.0,29.82,East,90,0.0,0.0,64,0.00,,,0.00,WUHU21623XXSP,2013-01-23 03:33:00,
2013-01-22 19:38:00,37.0,26.0,29.83,ESE,112,0.0,0.0,64,0.00,,,0.00,WUHU21623XXSP,2013-01-23 03:38:00,
2013-01-22 19:43:00,37.0,26.0,29.83,ESE,112,0.0,0.0,64,0.00,,,0.00,WUHU21623XXSP,2013-01-23 03:43:00,
2013-01-22 19:48:00,37.0,26.0,29.83,ENE,67,0.0,0.0,64,0.00,,,0.00,WUHU21623XXSP,2013-01-23 03:48:00,
2013-01-22 19:53:00,36.9,25.8,29.83,SE,135,0.0,0.0,64,0.00,,,0.00,WUHU21623XXSP,2013-01-23 03:53:00,
2013-01-22 19:58:00,36.9,25.8,29.83,ESE,112,0.0,0.0,64,0.00,,,0.00,WUHU21623XXSP,2013-01-23 03:58:00,
2013-01-22 20:03:00,36.7,25.6,29.83,ESE,112,0.0,0.0,64,0.00,,,0.00,WUHU21623XXSP,2013-01-23 04:03:00,
2013-01-22 20:08:00,36.7,25.6,29.83,ENE,67,0.0,0.0,64,0.00,,,0.00,WUHU21623XXSP,2013-01-23 04:08:00,
2013-01-22 20:13:00,36.5,25.5,29.82,ENE,67,0.0,0.0,64,0.00,,,0.00,WUHU21623XXSP,2013-01-23 04:13:00,
2013-01-22 20:18:00,36.5,25.5,29.83,ENE,67,0.0,0.0,64,0.00,,,0.00,WUHU21623XXSP,2013-01-23 04:18:00,
2013-01-22 20:23:00,36.3,25.3,29.82,ENE,67,0.0,0.0,64,0.00,,,0.00,WUHU21623XXSP,2013-01-23 04:23:00,
2013-01-22 20:28:00,36.3,25.3,29.83,ENE,67,0.0,0.0,64,0.00,,,0.00,WUHU21623XXSP,2013-01-23 04:28:00,
2013-01-22 20:33:00,36.3,25.3,29.83,ENE,67,0.0,0.0,64,0.00,,,0.00,WUHU21623XXSP,2013-01-23 04:33:00,
2013-01-22 20:38:00,36.3,25.7,29.82,ENE,67,0.0,0.0,65,0.00,,,0.00,WUHU21623XXSP,2013-01-23 04:38:00,
2013-01-22 20:43:00,36.1,25.5,29.82,East,90,0.0,0.0,65,0.00,,,0.00,WUHU21623XXSP,2013-01-23 04:43:00,
2013-01-22 20:48:00,36.1,25.5,29.82,ESE,112,0.0,0.0,65,0.00,,,0.00,WUHU21623XXSP,2013-01-23 04:48:00,
2013-01-22 20:53:00,36.1,25.5,29.82,ENE,67,0.0,0.0,65,0.00,,,0.00,WUHU21623XXSP,2013-01-23 04:53:00,
2013-01-22 20:58:00,36.0,24.9,29.82,ENE,67,0.0,0.0,64,0.00,,,0.00,WUHU21623XXSP,2013-01-23 04:58:00,
2013-01-22 21:00:00,36.1,25.1,29.82,ENE,67,0.0,0.0,64,0.00,,,0.00,WUHU21623XXSP,2013-01-23 05:00:00,
2013-01-22 21:03:00,36.1,25.1,29.82,ENE,67,0.0,0.0,64,0.00,,,0.00,WUHU21623XXSP,2013-01-23 05:03:00,
2013-01-22 21:08:00,36.0,24.9,29.82,ENE,67,0.0,0.0,64,0.00,,,0.00,WUHU21623XXSP,2013-01-23 05:08:00,
2013-01-22 21:13:00,35.8,24.8,29.81,ENE,67,0.0,0.0,64,0.00,,,0.00,WUHU21623XXSP,2013-01-23 05:13:00,
2013-01-22 21:18:00,35.8,24.8,29.81,ENE,67,0.0,0.0,64,0.00,,,0.00,WUHU21623XXSP,2013-01-23 05:18:00,
2013-01-22 21:23:00,35.8,24.8,29.82,ENE,67,0.0,0.0,64,0.00,,,0.00,WUHU21623XXSP,2013-01-23 05:23:00,
2013-01-22 21:28:00,35.8,24.8,29.82,ENE,67,0.0,0.0,64,0.00,,,0.00,WUHU21623XXSP,2013-01-23 05:28:00,
2013-01-22 21:33:00,35.8,24.8,29.82,SE,135,0.0,4.7,64,0.00,,,0.00,WUHU21623XXSP,2013-01-23 05:33:00,
2013-01-22 21:38:00,35.8,24.8,29.82,ESE,112,0.0,4.7,64,0.00,,,0.00,WUHU21623XXSP,2013-01-23 05:38:00,
2013-01-22 21:43:00,35.8,24.8,29.83,ESE,112,0.0,0.0,64,0.00,,,0.00,WUHU21623XXSP,2013-01-23 05:43:00,
2013-01-22 21:48:00,35.8,24.8,29.82,ENE,67,0.0,0.0,64,0.00,,,0.00,WUHU21623XXSP,2013-01-23 05:48:00,
2013-01-22 21:53:00,35.4,24.4,29.82,ENE,67,0.0,0.0,64,0.00,,,0.00,WUHU21623XXSP,2013-01-23 05:53:00,
2013-01-22 21:58:00,35.4,24.4,29.82,ESE,112,0.0,0.0,64,0.00,,,0.00,WUHU21623XXSP,2013-01-23 05:58:00,
2013-01-22 22:03:00,35.4,24.4,29.82,ESE,112,0.0,0.0,64,0.00,,,0.00,WUHU21623XXSP,2013-01-23 06:03:00,
2013-01-22 22:08:00,35.4,24.4,29.82,ESE,112,0.0,0.0,64,0.00,,,0.00,WUHU21623XXSP,2013-01-23 06:08:00,
2013-01-22 22:13:00,35.4,24.4,29.82,ESE,112,0.0,0.0,64,0.00,,,0.00,WUHU21623XXSP,2013-01-23 06:13:00,
2013-01-22 22:18:00,35.4,24.4,29.82,East,90,0.0,0.0,64,0.00,,,0.00,WUHU21623XXSP,2013-01-23 06:18:00,
2013-01-22 22:23:00,35.4,24.4,29.83,ESE,112,0.0,0.0,64,0.00,,,0.00,WUHU21623XXSP,2013-01-23 06:23:00,
2013-01-22 22:28:00,35.4,24.4,29.82,ENE,67,0.0,0.0,64,0.00,,,0.00,WUHU21623XXSP,2013-01-23 06:28:00,
2013-01-22 22:33:00,35.4,24.4,29.83,ENE,67,0.0,0.0,64,0.00,,,0.00,WUHU21623XXSP,2013-01-23 06:33:00,
2013-01-22 22:38:00,35.4,24.4,29.83,NE,45,0.0,0.0,64,0.00,,,0.00,WUHU21623XXSP,2013-01-23 06:38:00,
2013-01-22 22:43:00,35.4,24.4,29.82,ENE,67,0.0,0.0,64,0.00,,,0.00,WUHU21623XXSP,2013-01-23 06:43:00,
2013-01-22 22:48:00,35.4,24.4,29.82,ENE,67,0.0,0.0,64,0.00,,,0.00,WUHU21623XXSP,2013-01-23 06:48:00,
2013-01-22 22:53:00,35.4,24.4,29.83,ENE,67,0.0,0.0,64,0.00,,,0.00,WUHU21623XXSP,2013-01-23 06:53:00,
2013-01-22 22:58:00,35.4,24.4,29.83,SSE,157,0.0,0.0,64,0.00,,,0.00,WUHU21623XXSP,2013-01-23 06:58:00,
2013-01-22 23:03:00,35.4,24.4,29.84,South,180,0.0,0.0,64,0.00,,,0.00,WUHU21623XXSP,2013-01-23 07:03:00,
2013-01-22 23:08:00,35.2,24.3,29.84,SSE,157,0.0,0.0,64,0.00,,,0.00,WUHU21623XXSP,2013-01-23 07:08:00,
2013-01-22 23:13:00,35.2,24.6,29.83,ESE,112,0.0,0.0,65,0.00,,,0.00,WUHU21623XXSP,2013-01-23 07:13:00,
2013-01-22 23:18:00,35.2,24.6,29.84,ESE,112,0.0,0.0,65,0.00,,,0.00,WUHU21623XXSP,2013-01-23 07:18:00,
2013-01-22 23:23:00,35.2,24.6,29.84,East,90,0.0,0.0,65,0.00,,,0.00,WUHU21623XXSP,2013-01-23 07:23:00,
2013-01-22 23:28:00,34.9,24.3,29.83,ENE,67,0.0,0.0,65,0.00,,,0.00,WUHU21623XXSP,2013-01-23 07:28:00,
2013-01-22 23:33:00,34.9,24.3,29.84,ENE,67,0.0,0.0,65,0.00,,,0.00,WUHU21623XXSP,2013-01-23 07:33:00,
2013-01-22 23:38:00,34.9,24.3,29.82,SSE,157,0.0,0.0,65,0.00,,,0.00,WUHU21623XXSP,2013-01-23 07:38:00,
2013-01-22 23:43:00,34.9,24.3,29.81,ENE,67,0.0,0.0,65,0.00,,,0.00,WUHU21623XXSP,2013-01-23 07:43:00,
2013-01-22 23:48:00,34.9,24.3,29.86,South,180,4.3,4.3,65,0.00,,,0.00,WUHU21623XXSP,2013-01-23 07:48:00,
2013-01-22 23:53:00,34.7,24.1,29.83,SE,135,0.0,4.3,65,0.00,,,0.00,WUHU21623XXSP,2013-01-23 07:53:00,
2013-01-22 23:58:00,34.7,24.1,29.86,SE,135,7.2,7.2,65,0.00,,,0.00,WUHU21623XXSP,2013-01-23 07:58:00,